#timestamp,LO_Frequency,Hit,StdDev 
1562274015.1,286047004.0,N
1562274035.9,286047001.3,N
1562274055.7,286047003.9,N
1562274075.6,286047004.2,N
1562274095.4,286047004.0,N
1562274115.2,286047004.2,N
1562274135.1,286047004.2,N
1562274136.0,286047004.2,N
1562274155.8,286047003.9,N
1562274175.7,286047002.0,N
1562274195.5,286047002.6,N
1562274215.3,286047002.8,N
1562274235.2,286047002.8,N
1562274255.0,286047000.0,N
1562274255.9,286047000.0,N
1562274275.8,286046999.8,N
1562274295.6,286047000.1,N
1562274315.4,286046999.9,N
1562274335.3,286047000.6,N
1562274355.1,286046998.4,N
1562274375.9,286046999.5,N
1562274395.7,286046999.4,N
1562274415.5,286046998.7,N
1562274435.4,286046998.1,N
1562274455.2,286046998.5,N
1562274475.1,286047000.4,N
1562274476.0,286047000.4,N
1562274495.8,286047000.3,N
1562274515.6,286047002.5,N
1562274535.5,286047002.8,N
1562274555.3,286047000.5,N
1562274575.2,286047001.1,N
1562274595.9,286046998.4,N
1562274615.7,286046998.3,N
1562274635.6,286046999.3,N
1562274655.4,286047001.2,N
1562274675.2,286047002.8,N
1562274695.1,286047000.2,N
1562274696.0,286047000.2,N
1562274715.8,286047000.4,N
1562274735.7,286047001.0,N
1562274755.9,286047002.7,N
1562274775.7,286046998.7,N
1562274795.5,286046998.8,N
1562274815.4,286046998.8,N
1562274835.2,286046996.9,N
1562274855.1,286046997.7,N
1562274856.0,286046997.7,N
1562274875.8,286046996.9,N
1562274895.6,286046999.2,N
1562274915.5,286047001.2,N
1562274935.3,286046999.0,N
1562274955.2,286046999.4,N
1562274975.9,286046997.7,N
1562274995.7,286046997.2,N
1562275015.6,286046999.2,N
1562275035.4,286046999.5,N
1562275055.2,286046997.0,N
1562275075.1,286046996.6,N
1562275076.0,286046996.6,N
1562275095.8,286046997.3,N
1562275115.7,286046999.5,N
1562275135.5,286046997.0,N
1562275155.3,286046996.5,N
1562275175.2,286046998.7,N
1562275195.0,286047000.3,N
1562275195.9,286047000.3,N
1562275215.8,286047000.9,N
1562275235.6,286047000.5,N
1562275255.4,286047000.6,N
1562275275.3,286047000.3,N
1562275295.1,286047002.7,N
1562275345.9,286047000.8,E
1562275355.8,286047000.3,N
1562275375.6,286047001.0,P
1562275395.5,286047000.6,N
1562275415.3,286046998.5,Y
1562275435.1,286046996.6,P
1562275455.9,286046997.2,N
1562275475.7,286046999.0,N
1562275495.6,286046999.1,N
1562275515.4,286046996.9,N
1562275535.2,286046997.5,N
1562275555.1,286046996.7,N
1562275556.0,286046996.7,N
1562275575.8,286046997.0,N
1562275595.7,286046999.6,N
1562275615.5,286046998.9,N
1562275635.3,286046997.4,N
1562275655.2,286046996.8,N
1562275675.0,286046996.8,N
1562275675.9,286046996.8,N
1562275695.7,286046997.1,N
1562275715.6,286046996.6,N
1562275735.4,286046997.7,N
1562275755.3,286046996.6,N
1562275775.1,286046999.2,N
1562275795.8,286046998.8,N
1562275815.7,286046999.0,N
1562275835.5,286046999.6,N
1562275855.4,286046994.9,Y
1562275875.2,286046998.6,P
1562275895.0,286047001.1,N
1562275895.9,286047001.1,N
1562275915.8,286047001.1,N
1562275935.6,286046998.1,N
1562275955.5,286047000.9,N
1562276005.3,286046998.2,E
1562276015.3,286047000.1,N
1562276035.1,286047002.5,P
1562276036.0,286047002.5,N
1562276055.8,286047001.1,N
1562276075.7,286047000.2,N
1562276095.5,286047001.6,N
1562276115.3,286047004.0,Y
1562276135.2,286046999.8,P
1562276155.0,286047002.8,P
1562276155.9,286047002.8,N
1562276175.8,286047002.0,N
1562276195.6,286047001.8,N
1562276215.4,286046999.8,N
1562276235.3,286047000.0,N
1562276255.1,286047000.3,N
1562276275.9,286046999.7,N
1562276295.7,286047002.5,N
1562276315.5,286047001.9,N
1562276335.4,286047001.3,N
1562276355.2,286047002.1,N
1562276375.0,286047002.6,N
1562276375.9,286047002.6,N
1562276395.8,286047001.4,N
1562276415.6,286047002.1,N
1562276435.5,286047001.3,N
1562276455.3,286047001.9,N
1562276475.1,286047001.4,N
1562276495.9,286047001.3,N
1562276515.7,286047004.4,Y
1562276535.6,286047000.2,P
1562276555.4,286047002.6,P
1562276575.2,286046999.9,N
1562276595.1,286046998.2,N
1562276596.0,286046998.2,N
1562276615.8,286046999.9,N
1562276635.7,286047001.2,N
1562276655.5,286047000.0,N
1562276675.3,286047001.2,N
1562276695.2,286047001.1,N
1562276715.0,286047001.1,N
1562276715.9,286047001.1,N
1562276735.7,286047000.0,N
1562276755.6,286046999.7,N
1562276775.4,286047002.3,N
1562276795.3,286047001.8,N
1562276815.1,286047002.4,N
1562276816.0,286047002.4,N
1562276835.8,286047001.5,N
1562276855.7,286047002.3,N
1562276875.5,286047001.5,N
1562276895.4,286047001.9,N
1562276915.2,286047004.0,Y
1562276935.0,286047002.2,P
1562276935.9,286047002.2,P
1562276955.8,286047002.6,P
1562276975.6,286047001.6,N
1562276995.5,286047002.7,Y
1562277015.3,286047000.9,P
1562277035.1,286046998.5,P
1562277055.9,286046999.9,N
1562277075.7,286047000.0,N
1562277095.5,286047000.5,N
1562277115.4,286047000.6,N
1562277135.2,286047000.9,N
1562277155.1,286047000.6,N
1562277156.0,286047000.6,N
1562277175.8,286047001.0,N
1562277195.6,286047000.3,N
1562277215.5,286047000.0,N
1562277235.3,286047000.9,N
1562277255.2,286046998.2,N
1562277275.9,286046998.6,N
1562277295.7,286046998.4,N
1562277315.6,286046999.5,N
1562277335.4,286046997.9,N
1562277355.2,286046997.1,N
1562277375.1,286046996.6,N
1562277376.0,286046996.6,N
1562277395.8,286046999.2,N
1562277415.7,286046996.8,N
1562277435.5,286046997.6,N
1562277455.3,286046997.7,N
1562277475.2,286046995.1,Y
1562277495.0,286046997.7,P
1562277495.9,286046997.7,N
1562277515.8,286046997.7,P
1562277535.6,286046997.9,Y
1562277555.4,286046998.6,P
1562277575.3,286046998.6,P
1562277595.1,286046998.1,P
